Location: Cutler
(25.6150°N, 80.3110°W)
Time: 07:52:10
(UTC-05:00)

N. Korean satellite - Pass Details

Date: 19 November 2017
Orbit: 460 x 514 km, 97.2° (Epoch: 21 November)

Event Time Altitude Azimuth Distance (km) Brightness Sun altitude
Rises 18:18:20 0° 159° (SSE) 2,472 10.1 -10.9°
Reaches altitude 10° 18:20:23 10° 155° (SSE) 1,604 9.1 -11.3°
Maximum altitude 18:23:45 53° 77° (ENE) 576 6.5 -12.0°
Drops below altitude 10° 18:27:10 10° 360° (N) 1,631 9.1 -12.8°
Sets 18:29:15 0° 355° (N) 2,519 10.1 -13.2°
